Regional Weather Roundup
Issued by NWS Upton, NY

Current Version | Previous Version | Text Only | Print | Product List | Glossary On
Versions: 1 2 3 4 5 6 7 8 9 10 11 12 13 14 15 16 17 18 19 20 21 22 23 24 25 26 27 28 29 30 31 32 33 34 35 36 37 38 39 40 41 42 43 44 45 46 47 48 49 50
000
ASUS41 KOKX 290918
RWROKX

REGIONAL WEATHER ROUNDUP
NATIONAL WEATHER SERVICE NEW YORK NY
500 AM EDT FRI MAY 29 2015

NOTE: "FAIR" INDICATES FEW OR NO CLOUDS BELOW 12,000 FEET WITH NO
SIGNIFICANT WEATHER AND/OR OBSTRUCTIONS TO VISIBILITY.

NYZ071-072-176-178-NJZ106-104-291000-
NEW YORK CITY METRO AREA


CITY           SKY/WX    TMP DP  RH WIND       PRES   REMARKS
CENTRAL PARK   CLEAR     66  53  63 VRB6      30.29R
LAGUARDIA APRT CLEAR     65  53  65 NE6       30.25S
KENNEDY INTL   CLEAR     65  53  65 N7        30.26S
NEWARK/LIBERTY PTCLDY    64  54  69 N7        30.26S
BRNX BOT. GARD   N/A     63  52  67 N3        30.27F
TETERBORO      CLEAR     63  54  72 CALM      30.25S
$$

NYZ177-179-078>081-291000-
LONG ISLAND NEW YORK

CITY           SKY/WX    TMP DP  RH WIND       PRES   REMARKS
FARMINGDALE    CLEAR     61  55  81 N7        30.26R
ISLIP          CLEAR     61  54  77 N7        30.24R
SHIRLEY        CLEAR     60  54  80 N7        30.26R
WESTHAMPTON    CLEAR     59  55  87 N7        30.26R
MONTAUK POINT    N/A     60  56  86 NW3       30.27R
$$

NYZ052-065-067-291000-
HUDSON VALLEY

CITY           SKY/WX    TMP DP  RH WIND       PRES   REMARKS
WHITE PLAINS   CLEAR     60  54  80 N7        30.26S
NEWBURGH       CLEAR     55  54  94 VRB3      30.29
MONTGOMERY     CLEAR     52  51  97 N3        30.28S
POUGHKEEPSIE   CLEAR     55  52  89 CALM      30.27F
ALBANY         PTCLDY    56  52  86 E5        30.29R
$$

NJZ001-105-106-008-010-013-015-019>022-104-291000-
NEW JERSEY

CITY           SKY/WX    TMP DP  RH WIND       PRES   REMARKS
NEWARK/LIBERTY PTCLDY    64  54  69 N7        30.26S
TETERBORO      CLEAR     63  54  72 CALM      30.25S
CALDWELL       CLEAR     58  53  84 CALM      30.27S
MORRISTOWN     CLEAR     54  50  87 CALM      30.27S
SOMERVILLE     CLEAR     55  52  89 CALM      30.25S
SUSSEX         CLEAR     52  49  89 CALM      30.29S
ANDOVER          N/A     54  53  97 CALM      30.28S
TRENTON        CLEAR     64  54  69 N3        30.25S
MILLVILLE      PTCLDY    67  58  72 NE9       30.25R
ATLANTIC CITY  CLEAR     64  58  80 NE5       30.25R
WRIGHTSTOWN    CLEAR     59  57  92 NE2       30.23S
TOMS RIVER     CLEAR    N/A N/A N/A NE3       30.25F
BELMAR         CLEAR     64  52  63 N3        30.25S
$$

PAZ047>061-062-071-291000-
EASTERN PENNSYLVANIA

CITY           SKY/WX    TMP DP  RH WIND       PRES   REMARKS
PHILADELPHIA   PTCLDY    68  55  63 NE8       30.26R
ALLENTOWN      CLEAR     56  52  86 CALM      30.27S
SCRANTON       CLEAR     55  50  83 E6        30.29S
$$

CTZ002-004>006-009-010-012-RIZ004-006-007-MAZ004-011-015-291000-
SOUTHERN NEW ENGLAND
 IN CT

CITY           SKY/WX    TMP DP  RH WIND       PRES   REMARKS
BRADLEY INTL   PTCLDY    58  53  84 CALM      30.26R
HARTFORD       CLEAR     57  53  86 SE9       30.27R
DANBURY        CLEAR     53  50  89 SW3       30.29R
WTRBRY/OXFORD  CLEAR     55  48  76 N7        30.30R
BRIDGEPORT     CLEAR     60  55  83 N5        30.26R
MERIDEN        CLEAR     53  50  89 CALM      30.27R
NEW HAVEN      CLEAR     57  53  86 N3        30.26R
CHESTER        FAIR      61  55  82 N5        30.28R HAZE
GROTON         CLEAR     57  54  89 NE5       30.25R
WILLIMANTIC    CLEAR     54  52  93 CALM      30.27R

 IN RI

CITY           SKY/WX    TMP DP  RH WIND       PRES   REMARKS
PROVIDENCE     CLEAR     60  55  83 W3        30.26R
BLOCK ISLAND   CLEAR     59  55  88 N5        30.26R
WESTERLY       MOCLDY    55  53  93 CALM      30.26R

 IN MA

CITY           SKY/WX    TMP DP  RH WIND       PRES   REMARKS
BOSTON         CLEAR     64  55  72 NW8       30.24R
WORCESTER      CLEAR     61  53  75 N7        30.27R
WESTFIELD      CLEAR     54  51  90 CALM      30.27S
PROVINCETOWN   CLEAR     55  50  82 W5        30.24R
NANTUCKET      CLOUDY    60  57  89 SW5       30.24S
$$

ANZ330-335-338-340-345-350-353-355-291000-
COASTAL MARINE OBSERVATIONS


STATION/POSITION TIME  SKY/WX   TEMP    WIND        PRES    VSBY  WAVE
                                AIR SEA DIR/SP/G                  HT/PER
                 (UTC)          (F)     (DEG/KT/KT) (MB)    (MI)  (FT/S)
NY HARB ENTRANCE 0850            58 55  360/  6/  6 1024.0          2/ 8
4S FIRE IS       0803               57                N/A           3/ 7
20S FIRE ISLAND  0850            60 57  360/  6/  8 1023.9          3/ 8
GREAT SOUTH BAY  0815            64 67  360/  8/  8   N/A
23SW MTP         0850            56 54  340/  6/  6 1023.8          3/ 5
HUDSON CANYON    NOT AVBL
KINGS POINT      0800            63 58   30/  3/  5 1024.0
CENTRAL LI SOUND 0815            61 58  330/  6/  6   N/A
EASTERN LI SOUND 0800            58        CALM       N/A
ROBBINS REEF     0800            68     360/  9/ 12 1023.4
$$


>>>>>>>>>>>>>>>>>>>>>>>>>>>> KEY <<<<<<<<<<<<<<<<<<<<<<<<<<<
>                                                          <
>     SKY/WX - SKY CONDITION/PRESENT WEATHER               <
>     TMP    - TEMPERATURE IN FAHRENHEIT                   <
>     DP     - DEWPOINT IN FAHRENHEIT                      <
>     RH     - RELATIVE HUMIDITY IN PERCENT                <
>     WIND   - DIRECTION AND SPEED IN MPH                  <
>     PRES   - MEAN SEA LEVEL PRESSURE IN INCHES OF HG     <
>     WCI    - WIND CHILL INDEX                            <
>     VSB    - VISIBILITY IN MILES                         <
>     HX     - HEAT INDEX                                  <
>     TC     - TEMPERATURE IN CELSIUS                      <
>     VRB    - VARIABLE WIND DIRECTION                     <
>                                                          <
>>>>>>>>>>>>>>>>>>>>>>>>>>>> KEY <<<<<<<<<<<<<<<<<<<<<<<<<<<





USA.gov is the U.S. government's official web portal to all federal, state and local government web resources and services.